Tracking 22993 objects as of 11-May-2021
HD Live streaming from Space Station
objects crossing your sky now

ATLAS 5 CENTAUR R/B

Track ATLAS 5 CENTAUR R/B now!


NORAD ID: 39505
Int'l Code: 2014-004B
Perigee: 4,692.3 km
Apogee: 34,658.9 km
Inclination: 25.5 °
Period: 697.2 minutes
Semi major axis: 26046 km
RCS: Unknown
Launch date: January 23, 2014
Source: United States (US)
Launch site: AIR FORCE EASTERN TEST RANGE (AFETR)

Note: This is a ROCKET BODY
aabbcc
Your satellite tracking list
Your tracking list is empty




NASA's NSSDC Master Catalog

Two Line Element Set (TLE):
1 39505U 14004B   21131.56108069 -.00000232  00000-0  00000+0 0  9991
2 39505  25.4582 300.9797 5752488 140.2170 280.6730  2.06526608 55044
Source of the keplerian elements: AFSPC